Погода в Нижних Ачалуках

Россия / Республика Ингушетия     43°24′09″N   44°45′35″E
темп.,
°C
ветер,
м/с
пор.,
м/с
влажн.,
%
обл.,
%
осадки,
мм/ч
давл.,
гПа
погр.,
м
17 августа, ср
ср1700:00+26зюз33460 0.0 101045
03:00+24зюз22540 0.0 101124
06:00+24з25590 0.0 1011164
09:00+30ссз32450 0.0 1010958
12:00+34св43310 0.0 10081984
15:00+37св43253 0.0 10072766
18:00+35св55270 0.0 10061005
21:00+29в23380 0.0 100722
18 августа, чт
чт1800:00+27ююз11410 0.0 100711
03:00+25юз224363 0.0 100713
06:00+25юз224040 0.0 100727
09:00+31зсз423424 0.0 1007758
12:00+36с33254 0.0 10062270
15:00+38ссв44210 0.0 10033059
18:00+36ссв45235 0.0 1003705
21:00+27ююв333916 0.1 100531
19 августа, пт
пт1900:00+25юз3449100 0.0 100559
03:00+24зюз4859100 0.0 1005277
06:00+23з5967100 0.0 1008369
09:00+27зсз665049 0.0 1008750
12:00+32сз333433 0.0 10071563
15:00+34с22289 0.0 10052323
18:00+33всв553143 0.3 1005840
21:00+24юв225392 1.5 100827
20 августа, сб
сб2000:00+21зюз3583100 0.9 1009117
03:00+20зюз228581 0.9 100940
06:00+21з3581100 0.0 1010164
09:00+25сз3258100 0.0 1011587
12:00+30с2239100 0.0 10101455
15:00+33св4430100 0.0 10082235
18:00+29всв893781 0.0 1009652
21:00+22в366033 0.0 1011216
21 августа, вс
вс2100:00+20ссз116876 0.0 101011
03:00+19зюз3471100 0.0 101084
06:00+19юз1270100 0.0 101171
09:00+26ссв214711 0.0 1011734
12:00+31всв443071 0.0 10091560
15:00+32всв10925100 0.0 10071573
18:00+25в91238100 0.0 1010699
21:00+20в6106042 0.0 1011412